STARLINK-30399, 57951

Orbit data source: Space-Track

STARLINK-30399, 57951 is a payload satellite owned by SpaceX/Seattle (US) in LEO that was launched on Mon, 25 Sep 2023 UTC via an FALCON 9 launch vehicle from the Air Force Western Test Range (AFWTR). Payload-class satellites include a variety of spacecraft equipped with specific instruments for various scientific and technological missions. These include communications satellites like Starlink; space stations such as the ISS; scientific satellites like the Hubble; Earth observation satellites from companies like Planet Labs, Umbra, and HawkEye 360; GPS; miniature CubeSats for education and research; and military/defense satellites.

Loading next visibility...
Identifier
57951, 2023-148S
Orbit
LEO
Country
Flag of USUS
Related business
Manufacturer
SpaceX/Seattle
Mission
Operational Commercial Communications
Bus & Motor
STARLINK V2M, Unknown motor
Mass
730 kg wet, ~700 kg dry
Launch date (UTC)
2023-09-25 (3 years ago)
Launch vehicle
FALCON 9
Launch site
Air Force Western Test Range (AFWTR)
Object type
Payload
Rocket body
Debris
Shape & HBR
Box + 2 Pan, 17.7 m
Radar Cross Section
33.884 m², Large (>1 m²)

Expand to show TLE details & history
Last TLE update: 3 days ago

TLE from 3 days ago
0 STARLINK-30399
1 57951U 23148S   26170.55056760  .00000252  00000-0  18577-4 0  9996
2 57951  53.1590 270.0031 0000823  69.0143 291.0947 15.34396246154039
Epoch: 2026-06-19T13:12Z
TLE epoch observation values (Epoch: 2026-06-19T13:12:49.040Z)
Latitude
-0.00008°
Longitude
164.02078°
Altitude
463.413 km
Speed
7.636 km/s
True Right ascension
18h 00m 00s
True Declination
0° 00' 00"
Sunlit
Object was in full shadow at epoch
Visualization orbit readout
Latitude
Unknown
Longitude
Unknown
Altitude
Unknown
Speed
Unknown
Apparent Right ascension
Unknown
Apparent Declination
Unknown
Sunlit
N/A
Visualization observer readout
Local Sidereal Time
21:26:01
Azimuth
Unknown
Elevation
Unknown
Doppler factor
Unknown
Orbital elements
Apogee altitude
463.534 km
Perigee altitude
462.408 km
Semi-major axis
6,841.108 km
Eccentricity
0.00008
Inclination
53.159°
RAAN
270.0031°
Arg. of periapsis
69.0143°
True anomaly
291.0859°
Mean anomaly
291.0947°
Eccentric anomaly
291.0903°
Mean motion
3.83578 °/min
Orbital period
93.85 mins
BSTAR
0.000018577
Loading maneuver chart data...
Computing Atmospheric mass density...
Loading historical data...
Loading historical data...
Loading historical data...
Loading historical data...
Loading historical data...
Loading historical data...
Loading historical data...

Documentation

Showing up to 5 results
|